Location: Br�znic
(45.9167°N, 22.6500°E)
Time: 18:36:06
(UTC+00:00)

Okean 1-7 - Pass Details

Date: 03 March 2021
Orbit: 589 x 619 km, 82.5° (Epoch: 15 April)

Event Time Altitude Azimuth Distance (km) Brightness Sun altitude
Rises 17:57:58 0° 350° (N) 2,897 6.8 -18.0°
Reaches altitude 10° 18:00:13 10° 351° (N) 1,983 5.9 -18.4°
Maximum altitude 18:04:37 88° 260° (W) 617 3.0 -19.1°
Enters shadow 18:08:53 10° 173° (S) 1,928 5.4 -19.9°
